Tracking 29892 objects as of 21-Nov-2024
HD Live streaming from Space Station
objects crossing your sky now

STARLINK-1496

Track STARLINK-1496 now!
10-day predictions
STARLINK-1496 is classified as:


NORAD ID: 45780
Int'l Code: 2020-038BC
Perigee: 553.3 km
Apogee: 555.4 km
Inclination: 53.1 °
Period: 95.6 minutes
Semi major axis: 6925 km
RCS: Unknown
Launch date: June 13, 2020
Source: United States (US)
Launch site: AIR FORCE EASTERN TEST RANGE (AFETR)
Your satellite tracking list
Your tracking list is empty




NASA's NSSDC Master Catalog

Two Line Element Set (TLE):
1 45780U 20038BC  24324.97348449  .00001831  00000-0  14180-3 0  9990
2 45780  53.0529 167.6993 0001543 100.0115 260.1048 15.06397166245198
Source of the keplerian elements: AFSPC